Regional Weather Roundup
Issued by NWS

Home | Current Version | Previous Version | Text Only | Print | Product List | Glossary Off
Versions: 1 2 3 4 5 6 7 8 9 10 11 12 13 14 15 16 17 18 19 20 21 22 23 24 25 26 27 28 29 30 31 32 33 34 35 36 37 38 39 40 41 42 43 44 45 46 47 48 49 50

000
ASUS43 KMKX 270020
RWRWI

WISCONSIN REGIONAL WEATHER ROUNDUP
NATIONAL WEATHER SERVICE MILWAUKEE/SULLIVAN WI
600 PM CST THU FEB 26 2015

NOTE: "FAIR" INDICATES FEW OR NO CLOUDS BELOW 12,000 FEET WITH NO
SIGNIFICANT WEATHER AND/OR OBSTRUCTIONS TO VISIBILITY.

WIZ001-002-006>008-014>016-023>028-270100-
NORTHWEST WISCONSIN

CITY           SKY/WX    TMP DP  RH WIND       PRES   REMARKS
SUPERIOR ARPT  CLEAR      7  -9  47 NW9       30.42R WCI  -7
6HR MIN TEMP:   5; 6HR MAX TEMP:  10;

ASHLAND        CLEAR      5 -10  50 W7        30.38S WCI  -7
6HR MIN TEMP:   5; 6HR MAX TEMP:  10;

HAYWARD        CLEAR      6 -12  43 NW3       30.35R
6HR MIN TEMP:   4; 6HR MAX TEMP:  10;

SIREN          CLEAR      7 -10  47 NW6       30.40S WCI  -4
6HR MIN TEMP:   6; 6HR MAX TEMP:   9;

CUMBERLAND     CLEAR      5  -9  51 NW6       30.37R WCI  -6
RICE LAKE      CLEAR      5 -10  49 W5        30.40R WCI  -4
6HR MIN TEMP:   5; 6HR MAX TEMP:  10;

CHETEK         CLEAR      6  -9  49 W3        30.38R
6HR MIN TEMP:   5; 6HR MAX TEMP:   9;

LADYSMITH      CLEAR      7 -10  47 NW6       30.36R WCI  -4
6HR MIN TEMP:   6; 6HR MAX TEMP:  10;

EAU CLAIRE     CLEAR      7 -10  46 NW3       30.39S
6HR MIN TEMP:   6; 6HR MAX TEMP:  10;

MENOMONIE      CLEAR      6  -8  51 W6        30.41S WCI  -4
6HR MIN TEMP:   7; 6HR MAX TEMP:  11;

NEW RICHMOND   CLEAR      5  -9  53 NW8       30.42R WCI  -8
6HR MIN TEMP:   5; 6HR MAX TEMP:   9;

OSCEOLA        CLEAR      6  -8  50 NW5       30.45S WCI  -2
6HR MIN TEMP:   5; 6HR MAX TEMP:  10;

$$

WIZ003>005-009-010-017-018-270100-
NORTH CENTRAL WISCONSIN

CITY           SKY/WX    TMP DP  RH WIND       PRES   REMARKS
MANITOWISH WTR FAIR       0 -11  58 NW5       30.27R WCI -10
6HR MIN TEMP:   0; 6HR MAX TEMP:   6;

ARBOR VITAE    CLEAR      3  -9  57 N5        30.27R WCI  -6
6HR MIN TEMP:   3; 6HR MAX TEMP:   9;

WOODRUFF       CLEAR      3  -9  57 N5        30.27R WCI  -6
6HR MIN TEMP:   3; 6HR MAX TEMP:   9;

RHINELANDER    CLEAR      4 -10  52 NW3       30.26R
6HR MIN TEMP:   4; 6HR MAX TEMP:   8; 6HR PCP: TRACE;

EAGLE RIVER    CLEAR      3 -11  50 NW6       30.25R WCI  -8
6HR MIN TEMP:   3; 6HR MAX TEMP:   8;

LAND O LAKES   CLEAR      3  -9  57 NW3       30.25S
6HR MIN TEMP:   3; 6HR MAX TEMP:   8;

PHILLIPS       CLEAR      4 -10  52 CALM      30.29R
6HR MIN TEMP:   4; 6HR MAX TEMP:   9;

TOMAHAWK       CLEAR      5 -10  49 CALM      30.28R
6HR MIN TEMP:   5; 6HR MAX TEMP:  10;

MEDFORD        CLEAR      5  -8  55 W6        30.29R WCI  -6
6HR MIN TEMP:   5; 6HR MAX TEMP:   9;

MERRILL        CLEAR      8  -9  46 NW5       30.30R WCI  -1
6HR MIN TEMP:   7; 6HR MAX TEMP:  11;

$$

WIZ029-030-035-036-043>047-270100-
CENTRAL WISCONSIN

CITY           SKY/WX    TMP DP  RH WIND       PRES   REMARKS
WAUSAU         CLEAR      9  -9  44 NW7       30.29R WCI  -2
6HR MIN TEMP:   6; 6HR MAX TEMP:  11;

MOSINEE        PTCLDY     9  -8  47 W8        30.31R WCI  -4
MARSHFIELD     CLEAR      6  -8  52 NW8       30.32R WCI  -7
6HR MIN TEMP:   6; 6HR MAX TEMP:   9;

STEVENS POINT  CLEAR      7  -8  49 W5        30.33R WCI  -2
6HR MIN TEMP:   6; 6HR MAX TEMP:  10;

WAUPACA        CLEAR     12  -8  39 W5        30.35R WCI   4
6HR MIN TEMP:  12; 6HR MAX TEMP:  16;

WAUTOMA        CLEAR      8  -8  48 NW6       30.36R WCI  -2
6HR MIN TEMP:   8; 6HR MAX TEMP:  12;

WISC RAPIDS    CLEAR      6  -8  52 W9        30.36R WCI  -8
6HR MIN TEMP:   6; 6HR MAX TEMP:  10;

CAMP DOUGLAS   PTCLDY     9  -6  52 NW5       30.36R WCI   0
$$

WIZ011>013-019>022-031-037>040-048>050-270100-
NORTHEAST WISCONSIN

CITY           SKY/WX    TMP DP  RH WIND       PRES   REMARKS
ANTIGO         CLEAR      5  -9  52 NW6       30.27R WCI  -6
6HR MIN TEMP:   5; 6HR MAX TEMP:   9;

SHAWANO        CLEAR     13  -8  38 W5        30.32R WCI   5
6HR MIN TEMP:  12; 6HR MAX TEMP:  16;

OCONTO         CLEAR      7  -2  65 SE3       30.34R
6HR MIN TEMP:   7; 6HR MAX TEMP:  13;

STURGEON BAY   CLEAR      5  -8  56 CALM      30.34S
6HR MIN TEMP:   5; 6HR MAX TEMP:  10;

GREEN BAY      CLEAR     10  -2  58 SW3       30.33R
6HR MIN TEMP:  10; 6HR MAX TEMP:  14;

MANITOWOC      CLEAR      7  -7  52 CALM      30.35R
6HR MIN TEMP:   7; 6HR MAX TEMP:  12;

APPLETON       PTCLDY     9  -9  43 NW6       30.32R WCI  -1
CLINTONVILLE   CLEAR     10  -8  44 NW6       30.33R WCI   1
OSHKOSH        MOCLDY     8  -4  58 S5        30.33R WCI   0
6HR MIN TEMP:   8; 6HR MAX TEMP:  13;

$$

WIZ032>034-041-042-053>061-270100-
SOUTHWEST WISCONSIN

CITY           SKY/WX    TMP DP  RH WIND       PRES   REMARKS
LA CROSSE      CLEAR      6  -6  57 NW8       30.42R WCI  -7
6HR MIN TEMP:   6; 6HR MAX TEMP:  14;

SPARTA         CLEAR      7  -7  52 NW7       30.40R WCI  -4
6HR MIN TEMP:   7; 6HR MAX TEMP:  13;

VIROQUA        CLEAR      5  -6  61 N9        30.34S WCI -10
6HR MIN TEMP:   5; 6HR MAX TEMP:  11;

BOSCOBEL       CLEAR     10  -5  50 N5        30.41R WCI   2
6HR MIN TEMP:  10; 6HR MAX TEMP:  15; 6HR PCP: TRACE;

PRAIRIE DU CHI PTCLDY     9  -6  52 NW8       30.42R WCI  -4
6HR MIN TEMP:   9; 6HR MAX TEMP:  12;

PLATTEVILLE    CLEAR      7  -6  53 NW7       30.36R WCI  -4
6HR MIN TEMP:   7; 6HR MAX TEMP:  12;

$$

WIZ056-057-062-063-064-067-068-270100-
SOUTH CENTRAL WISCONSIN

CITY           SKY/WX    TMP DP  RH WIND       PRES   REMARKS
REEDSBURG      PTCLDY    10  -6  50 NW6       30.35R WCI   0
6HR MIN TEMP:   9; 6HR MAX TEMP:  12;

BARABOO/DELLS  CLEAR      9  -8  45 N5        30.35R WCI   1
6HR MIN TEMP:   9; 6HR MAX TEMP:  13;

LONE ROCK      CLOUDY    11  -6  46 N5        30.38R WCI   3
6HR MIN TEMP:  11; 6HR MAX TEMP:  14;

MINERAL POINT  PTCLDY    10  -6  48 NW5       30.33R WCI   2
MADISON        PTCLDY    10  -6  48 NW6       30.35R WCI   0
6HR MIN TEMP:  10; 6HR MAX TEMP:  14;

MIDDLETON      PTCLDY     9  -6  50 NW6       30.35R WCI   0
6HR MIN TEMP:   9; 6HR MAX TEMP:  15;

WATERTOWN      CLEAR      8  -4  56 CALM      30.34R
6HR MIN TEMP:   8; 6HR MAX TEMP:  12;

MONROE         PTCLDY    10  -4  52 CALM      30.33R HAZE
JANESVILLE     CLEAR     10  -6  48 N7        30.35R WCI   0
$$

WIZ051-052-058>065-066-070>072-270100-
SOUTHEAST WISCONSIN

CITY           SKY/WX    TMP DP  RH WIND       PRES   REMARKS
MILWAUKEE      PTCLDY    11  -6  46 NW9       30.34R WCI  -2
6HR MIN TEMP:  10; 6HR MAX TEMP:  17;

WAUKESHA       CLEAR      7  -8  51 N7        30.34R WCI  -5
MILWAUKEE/TIMM CLEAR      9  -6  52 NW12      30.34R WCI  -6
RACINE         PTCLDY    11  -4  51 NW8       30.35R WCI  -1
6HR MIN TEMP:  10; 6HR MAX TEMP:  15;

BURLINGTON     CLEAR      7  -8  51 N5        30.34R WCI  -2
6HR MIN TEMP:   7; 6HR MAX TEMP:  13;

KENOSHA        CLEAR     10  -5  50 NW7       30.33R WCI  -1
6HR MIN TEMP:  10; 6HR MAX TEMP:  16;

FOND DU LAC    CLEAR      8  -6  52 CALM      30.34R
6HR MIN TEMP:   8; 6HR MAX TEMP:  11;

SHEBOYGAN      CLEAR      6  -5  60 N3        30.34R
6HR MIN TEMP:   6; 6HR MAX TEMP:  12;

WEST BEND      CLEAR      9  -6  52 NW3       30.33R
JUNEAU         CLEAR      8  -5  53 CALM      30.34R
6HR MIN TEMP:   8; 6HR MAX TEMP:  11;

$$

LSZ147-162-270100-
LAKE SUPERIOR

STATION/POSITION TIME  TEMP    WIND        PRES    WAVE
                       AIR SEA DIR/SP/G            HT/PER
                 (UTC) (F)     (DEG/KT/KT) (MB)    (FT/S)
DEVILS ISLAND    0000   11     290/ 13/ 15 1029.8S
PORT WING        2340   10     240/  6/ 11 1029.1S
SAXON HARBOR     2300    8     310/  6/ 10 1028.4S
$$

LMZ867-665-643>646-270100-
LAKE MICHIGAN

STATION/POSITION TIME  TEMP    WIND        PRES    WAVE
                       AIR SEA DIR/SP/G            HT/PER


USA.gov is the U.S. government's official web portal to all federal, state and local government web resources and services.